timestamp,wind_dir_avg,wind_spd_avg,wind_spd_max_dir,wind_spd_gust,battery_voltage,lat,long
2024-03-25 00:04:01+00:00,250.0,10.65,249.0,11.36,12.25,47.59359,-54.27349
2024-03-25 00:14:00+00:00,244.0,10.94,243.0,11.11,12.17,47.59359,-54.27349
2024-03-25 00:24:00+00:00,242.0,10.87,243.0,10.96,12.17,47.59359,-54.27349
2024-03-25 00:34:00+00:00,315.0,0.01,246.0,0.0,12.17,47.59359,-54.27349
2024-03-25 00:44:00+00:00,241.0,11.54,244.0,11.62,12.17,47.59359,-54.27349
2024-03-25 00:54:00+00:00,230.0,11.15,232.0,12.89,12.17,47.59359,-54.27349
2024-03-25 01:04:00+00:00,229.0,11.17,234.0,12.37,12.17,47.59359,-54.27349
2024-03-25 01:14:00+00:00,241.0,10.66,239.0,11.2,12.17,47.59359,-54.27349
2024-03-25 01:24:00+00:00,236.0,9.26,238.0,10.67,12.17,47.59359,-54.27349
2024-03-25 01:34:00+00:00,247.0,10.6,244.0,11.58,12.17,47.59359,-54.27349
2024-03-25 01:44:00+00:00,247.0,10.7,248.0,11.41,12.17,47.59359,-54.27349
2024-03-25 01:54:00+00:00,240.0,11.01,243.0,11.89,12.17,47.59359,-54.27349
2024-03-25 02:04:00+00:00,248.0,10.16,249.0,11.06,12.17,47.59359,-54.27349
2024-03-25 02:14:00+00:00,246.0,10.08,241.0,11.07,12.17,47.59359,-54.27349
2024-03-25 02:24:00+00:00,247.0,9.54,241.0,10.79,12.17,47.59359,-54.27349
2024-03-25 02:34:00+00:00,252.0,9.47,254.0,10.82,12.17,47.59359,-54.27349
2024-03-25 02:44:00+00:00,266.0,9.81,267.0,10.61,12.17,47.59359,-54.27349
2024-03-25 02:54:00+00:00,272.0,9.68,271.0,12.66,12.17,47.59359,-54.27349
2024-03-25 03:04:00+00:00,280.0,9.71,282.0,10.8,12.17,47.59359,-54.27349
2024-03-25 03:14:00+00:00,283.0,8.29,282.0,9.6,12.09,47.59359,-54.27349
2024-03-25 03:24:00+00:00,283.0,8.13,284.0,9.96,12.09,47.59359,-54.27349
2024-03-25 03:34:00+00:00,295.0,4.41,284.0,7.2,12.09,47.59359,-54.27349
2024-03-25 03:44:00+00:00,291.0,6.91,283.0,9.37,12.09,47.59359,-54.27349
2024-03-25 03:54:00+00:00,307.0,4.9,309.0,5.13,12.09,47.59359,-54.27349
2024-03-25 04:04:00+00:00,315.0,5.33,323.0,6.01,12.09,47.59359,-54.27349
2024-03-25 04:14:00+00:00,297.0,9.94,295.0,11.59,12.09,47.59359,-54.27349
2024-03-25 04:24:00+00:00,299.0,9.44,303.0,10.54,12.09,47.59359,-54.27349
2024-03-25 04:34:00+00:00,307.0,11.09,311.0,13.18,12.09,47.59359,-54.27349
2024-03-25 04:44:00+00:00,320.0,10.56,325.0,12.71,12.09,47.59359,-54.27349
2024-03-25 04:54:00+00:00,317.0,9.74,309.0,11.4,12.09,47.59359,-54.27349
2024-03-25 05:04:00+00:00,307.0,8.56,297.0,10.15,12.09,47.59359,-54.27349
2024-03-25 05:14:00+00:00,298.0,7.84,292.0,9.52,12.09,47.59359,-54.27349
2024-03-25 05:24:00+00:00,307.0,7.69,299.0,8.3,12.09,47.59359,-54.27349
2024-03-25 05:34:00+00:00,292.0,6.6,282.0,8.83,12.09,47.59359,-54.27349
2024-03-25 05:44:00+00:00,309.0,7.03,307.0,7.88,12.09,47.59359,-54.27349
2024-03-25 05:54:00+00:00,315.0,0.01,309.0,0.0,12.09,47.59359,-54.27349
2024-03-25 06:04:00+00:00,315.0,0.01,309.0,0.0,12.09,47.59359,-54.27349
2024-03-25 06:14:00+00:00,290.0,7.82,291.0,7.84,12.09,47.59359,-54.27349
2024-03-25 06:24:00+00:00,315.0,0.01,291.0,0.0,12.09,47.59359,-54.27349
2024-03-25 06:34:00+00:00,311.0,3.21,312.0,3.23,12.09,47.59359,-54.27349
2024-03-25 06:44:00+00:00,315.0,0.01,292.0,0.0,12.09,47.59359,-54.27349
2024-03-25 06:54:00+00:00,315.0,0.01,297.0,0.0,12.09,47.59359,-54.27349
2024-03-25 07:04:00+00:00,315.0,0.01,297.0,0.0,12.09,47.59359,-54.27349
2024-03-25 07:14:00+00:00,315.0,0.01,311.0,0.0,12.01,47.59359,-54.27349
2024-03-25 07:24:00+00:00,315.0,0.01,311.0,0.0,12.01,47.59359,-54.27349
2024-03-25 07:34:00+00:00,315.0,0.01,308.0,0.0,12.01,47.59359,-54.27349
2024-03-25 07:44:00+00:00,315.0,0.01,308.0,0.0,12.01,47.59359,-54.27349
2024-03-25 07:54:00+00:00,315.0,0.01,328.0,0.0,12.01,47.59359,-54.27349
2024-03-25 08:04:00+00:00,306.0,3.17,306.0,3.19,12.01,47.59359,-54.27349
2024-03-25 08:14:00+00:00,302.0,2.92,303.0,2.95,12.01,47.59359,-54.27349
2024-03-25 08:24:00+00:00,315.0,0.01,316.0,0.0,12.01,47.59359,-54.27349
2024-03-25 08:34:00+00:00,318.0,3.71,318.0,3.89,12.01,47.59359,-54.27349
2024-03-25 08:44:00+00:00,322.0,4.06,322.0,4.07,12.01,47.59359,-54.27349
2024-03-25 08:54:00+00:00,328.0,4.29,330.0,4.81,12.01,47.59359,-54.27349
2024-03-25 09:04:00+00:00,321.0,3.73,322.0,3.94,12.01,47.59359,-54.27349
2024-03-25 09:14:00+00:00,320.0,3.56,324.0,3.99,12.01,47.59359,-54.27349
2024-03-25 09:24:00+00:00,329.0,3.8,330.0,4.42,12.01,47.59359,-54.27349
2024-03-25 09:34:00+00:00,345.0,8.31,348.0,8.77,12.01,47.59359,-54.27349
2024-03-25 09:44:00+00:00,337.0,6.42,339.0,6.7,12.01,47.59359,-54.27349
2024-03-25 09:54:00+00:00,334.0,6.08,337.0,6.75,12.01,47.59359,-54.27349
2024-03-25 10:04:00+00:00,338.0,6.5,339.0,7.48,12.01,47.59359,-54.27349
2024-03-25 10:14:00+00:00,331.0,6.12,324.0,6.92,12.09,47.59359,-54.27349
2024-03-25 10:24:00+00:00,336.0,8.32,336.0,11.32,12.09,47.59359,-54.27349
2024-03-25 10:34:00+00:00,332.0,10.09,328.0,11.11,12.09,47.59359,-54.27349
2024-03-25 10:44:00+00:00,331.0,8.82,325.0,10.32,12.09,47.59359,-54.27349
2024-03-25 10:54:00+00:00,327.0,8.54,325.0,9.92,12.09,47.59359,-54.27349
2024-03-25 11:04:00+00:00,329.0,8.27,324.0,10.01,12.09,47.59359,-54.27349
2024-03-25 11:14:00+00:00,15.0,7.42,34.0,10.03,13.68,47.59359,-54.27349
2024-03-25 11:24:00+00:00,0.0,7.6,1.0,8.71,13.68,47.59359,-54.27349
2024-03-25 11:34:00+00:00,358.0,6.75,359.0,8.68,13.68,47.59359,-54.27349
2024-03-25 11:44:00+00:00,358.0,6.44,27.0,7.37,13.68,47.59359,-54.27349
2024-03-25 11:54:00+00:00,359.0,6.71,0.0,7.87,13.68,47.59359,-54.27349
2024-03-25 12:04:00+00:00,357.0,7.14,359.0,7.9,13.68,47.59359,-54.27349
2024-03-25 12:14:00+00:00,356.0,5.42,356.0,6.13,14.4,47.59359,-54.27349
2024-03-25 12:24:00+00:00,357.0,6.74,359.0,9.39,14.4,47.59359,-54.27349
2024-03-25 12:34:00+00:00,338.0,9.08,331.0,10.31,14.4,47.59359,-54.27349
2024-03-25 12:44:00+00:00,358.0,7.34,0.0,7.9,14.4,47.59359,-54.27349
2024-03-25 12:54:00+00:00,358.0,6.71,359.0,8.34,14.4,47.59359,-54.27349
2024-03-25 13:04:00+00:00,355.0,6.15,326.0,7.77,14.4,47.59359,-54.27349
2024-03-25 13:14:00+00:00,17.0,6.6,36.0,8.88,14.48,47.59359,-54.27349
2024-03-25 13:24:00+00:00,355.0,5.71,320.0,7.42,14.48,47.59359,-54.27349
2024-03-25 13:34:00+00:00,11.0,5.49,41.0,7.11,14.48,47.59359,-54.27349
2024-03-25 13:44:00+00:00,345.0,6.17,320.0,7.97,14.48,47.59359,-54.27349
2024-03-25 13:54:00+00:00,6.0,4.45,46.0,6.53,14.48,47.59359,-54.27349
2024-03-25 14:04:00+00:00,54.0,5.68,54.0,6.71,14.48,47.59359,-54.27349
2024-03-25 14:14:00+00:00,45.0,6.88,47.0,8.15,14.24,47.59359,-54.27349
2024-03-25 14:24:00+00:00,36.0,6.93,36.0,7.94,14.24,47.59359,-54.27349
2024-03-25 14:34:00+00:00,46.0,6.81,46.0,7.75,14.24,47.59359,-54.27349
2024-03-25 14:44:00+00:00,31.0,6.08,42.0,7.94,14.24,47.59359,-54.27349
2024-03-25 14:54:00+00:00,18.0,6.62,38.0,8.29,14.24,47.59359,-54.27349
2024-03-25 15:04:00+00:00,13.0,6.32,33.0,8.62,14.24,47.59359,-54.27349
2024-03-25 15:14:00+00:00,5.0,5.3,7.0,6.44,14.4,47.59359,-54.27349
2024-03-25 15:24:00+00:00,20.0,6.48,38.0,8.45,14.4,47.59359,-54.27349
2024-03-25 15:34:00+00:00,3.0,5.03,1.0,5.8,14.4,47.59359,-54.27349
2024-03-25 15:44:00+00:00,356.0,5.95,347.0,6.73,14.4,47.59359,-54.27349
2024-03-25 15:54:00+00:00,356.0,5.45,357.0,6.36,14.4,47.59359,-54.27349
2024-03-25 16:04:00+00:00,20.0,5.87,40.0,7.44,14.4,47.59359,-54.27349
2024-03-25 16:14:00+00:00,2.0,5.48,3.0,6.5,13.68,47.59359,-54.27349
2024-03-25 16:24:00+00:00,4.0,5.22,1.0,6.31,13.68,47.59359,-54.27349
2024-03-25 16:34:00+00:00,349.0,4.87,333.0,6.12,13.68,47.59359,-54.27349
2024-03-25 16:44:00+00:00,334.0,5.14,319.0,6.94,13.68,47.59359,-54.27349
2024-03-25 16:54:00+00:00,3.0,3.54,0.0,4.13,13.68,47.59359,-54.27349
2024-03-25 17:04:00+00:00,11.0,2.0,9.0,2.56,13.68,47.59359,-54.27349
2024-03-25 17:14:00+00:00,32.0,2.52,40.0,3.08,14.48,47.59359,-54.27349
2024-03-25 17:24:00+00:00,0.0,1.63,0.0,2.04,14.48,47.59359,-54.27349
2024-03-25 17:34:00+00:00,58.0,1.14,51.0,1.47,14.48,47.59359,-54.27349
2024-03-25 17:44:00+00:00,315.0,0.01,126.0,0.0,14.48,47.59359,-54.27349
2024-03-25 17:54:00+00:00,143.0,2.71,136.0,3.33,14.48,47.59359,-54.27349
2024-03-25 18:04:00+00:00,141.0,1.81,144.0,2.23,14.48,47.59359,-54.27349
2024-03-25 18:14:00+00:00,143.0,2.1,145.0,2.29,13.68,47.59359,-54.27349
2024-03-25 18:24:00+00:00,143.0,2.18,143.0,2.33,13.68,47.59359,-54.27349
2024-03-25 18:34:00+00:00,145.0,2.77,145.0,2.92,13.68,47.59359,-54.27349
2024-03-25 18:44:00+00:00,130.0,2.36,131.0,2.51,13.68,47.59359,-54.27349
2024-03-25 18:54:00+00:00,134.0,2.37,142.0,2.46,13.68,47.59359,-54.27349
2024-03-25 19:04:00+00:00,120.0,1.93,118.0,2.38,13.68,47.59359,-54.27349
2024-03-25 19:14:00+00:00,136.0,1.65,125.0,2.33,13.68,47.59359,-54.27349
2024-03-25 19:24:00+00:00,152.0,1.26,148.0,1.36,13.68,47.59359,-54.27349
2024-03-25 19:34:00+00:00,147.0,1.38,136.0,1.67,13.68,47.59359,-54.27349
2024-03-25 19:44:00+00:00,223.0,1.25,230.0,1.5,13.68,47.59359,-54.27349
2024-03-25 19:54:00+00:00,215.0,1.49,225.0,1.83,13.68,47.59359,-54.27349
2024-03-25 20:04:00+00:00,136.0,1.51,118.0,2.29,13.68,47.59359,-54.27349
2024-03-25 20:14:00+00:00,116.0,1.35,255.0,2.31,13.6,47.59359,-54.27349
2024-03-25 20:24:00+00:00,315.0,0.01,101.0,0.0,13.6,47.59359,-54.27349
2024-03-25 20:34:00+00:00,259.0,2.85,257.0,3.04,13.6,47.59359,-54.27349
2024-03-25 20:44:00+00:00,251.0,2.78,248.0,3.17,13.6,47.59359,-54.27349
2024-03-25 20:54:00+00:00,116.0,1.27,116.0,1.27,13.6,47.59359,-54.27349
2024-03-25 21:04:00+00:00,218.0,1.13,247.0,2.95,13.6,47.59359,-54.27349
2024-03-25 21:14:00+00:00,209.0,1.16,240.0,2.44,13.29,47.59359,-54.27349
2024-03-25 21:24:00+00:00,180.0,1.34,133.0,2.14,13.29,47.59359,-54.27349
2024-03-25 21:34:00+00:00,134.0,2.3,140.0,2.58,13.29,47.59359,-54.27349
2024-03-25 21:44:00+00:00,138.0,2.45,145.0,2.91,13.29,47.59359,-54.27349
2024-03-25 21:54:00+00:00,144.0,2.93,146.0,3.95,13.29,47.59359,-54.27349
2024-03-25 22:04:00+00:00,145.0,3.42,144.0,3.83,13.29,47.59359,-54.27349
2024-03-25 22:14:00+00:00,133.0,2.68,135.0,2.87,12.73,47.59359,-54.27349
2024-03-25 22:24:00+00:00,129.0,2.47,132.0,2.71,12.73,47.59359,-54.27349
2024-03-25 22:34:00+00:00,126.0,2.26,124.0,2.4,12.73,47.59359,-54.27349
2024-03-25 22:44:00+00:00,125.0,2.21,126.0,2.36,12.73,47.59359,-54.27349
2024-03-25 22:54:00+00:00,104.0,1.4,99.0,1.65,12.73,47.59359,-54.27349
2024-03-25 23:04:00+00:00,276.0,8.42,275.0,9.14,12.73,47.59359,-54.27349
2024-03-25 23:14:00+00:00,288.0,8.34,287.0,9.6,12.33,47.59359,-54.27349
2024-03-25 23:24:00+00:00,298.0,5.07,290.0,7.4,12.33,47.59359,-54.27349
2024-03-25 23:34:00+00:00,307.0,4.62,305.0,5.31,12.33,47.59359,-54.27349
2024-03-25 23:44:00+00:00,307.0,4.29,309.0,4.79,12.33,47.59359,-54.27349
2024-03-25 23:54:00+00:00,350.0,3.06,326.0,4.03,12.33,47.59359,-54.27349
